Probability
0 0 0 0 0 0 0 0 0 0 0 0 0 0 0 0 0 0 0 0 0 0 0 0 0 0 0 0 0 0 0 0 0 0 0 0 0 0 0 0 0 0 0
0 0 0 0 0 0 0 0 0 0 0 0 0 0 0 0 0 0 0 0 0 0 0 0 0 0 0 0 0 0 0 0 0 0 0 0 0 0 0 0 0 0 0
0 0 0 0 0 0 0 0 0 0 0 0 0 0 0 0 0 0 0 0 0 0 0 0 0 0 0 0 0 0 0 0 0 0 0 0 0 0 0 0 0 0 0
0 0 0 0 0 0 0 0 0 0 0 0 0 0 0 0 0 0 0 0 0 0 0 0 0 0 0 0 0 0 0 0 0 0 0 0 0 0 0 0 0 0 0
0 0 0 0 0 0 0 0 0 0 0 0 0 0 0 0 0 0 0 0 0 0 0 0 0 0 0 0 0 0 0 0 0 0 0 0 0 0 0 0 0 0 0
0 0 0 0 0 0 0 0 0 0 0 0 0 0 0 0 0 0 0 0 0 0 0 0 0 0 0 0 0 0 0 0 0 0 0 0 0 0 0 0 0 0 0
1 0 0 0 0 0 0 0 0 0 0 0 0 0 0 0 0 0 0 0 0 0 0 0 0 0 0 0 0 0 0 0 0 0 0 0 0 0 0 0 0 0 0
2 1 0 0 0 0 0 0 0 0 0 0 0 0 0 0 0 0 0 0 0 0 0 0 0 0 0 0 0 0 0 0 0 0 0 0 0 0 0 0 0 0 0
6 4 1 0 0 0 0 0 0 0 0 0 0 0 0 0 0 0 0 0 0 0 0 0 0 0 0 0 0 0 0 0 0 0 0 0 0 0 0 0 0 0 0
19 15 6 1 0 0 0 0 0 0 0 0 0 0 0 0 0 0 0 0 0 0 0 0 0 0 0 0 0 0 0 0 0 0 0 0 0 0 0 0 0 0 0
25 22 11 2 0 0 0 0 0 0 0 0 0 0 0 0 0 0 0 0 0 0 0 0 0 0 0 0 0 0 0 0 0 0 0 0 0 0 0 0 0 0 0
12 11 7 2 0 0 0 0 0 0 0 0 0 0 0 0 0 0 0 0 0 0 0 0 0 0 0 0 0 0 0 0 0 0 0 0 0 0 0 0 0 0 0
0 0 1 1 0 0 0 0 0 0 0 0 0 0 0 0 0 0 0 0 0 0 0 0 0 0 0 0 0 0 0 0 0 0 0 0 0 0 0 0 0 0 0
0 0 0 0 0 0 0 0 0 0 0 0 0 0 0 0 0 0 0 0 0 0 0 0 0 0 0 0 0 0 0 0 0 0 0 0 0 0 0 0 0 0 0
0 0 0 0 0 0 0 0 0 0 0 0 0 0 0 0 0 0 0 0 0 0 0 0 0 0 0 0 0 0 0 0 0 0 0 0 0 0 0 0 0 0 0
0 0 0 0 0 0 0 0 0 0 0 0 0 0 0 0 0 0 0 0 0 0 0 0 0 0 0 0 0 0 0 0 0 0 0 0 0 0 0 0 0 0 0
0 0 0 0 0 0 0 0 0 0 0 0 0 0 0 0 0 0 0 0 0 0 0 0 0 0 0 0 0 0 0 0 0 0 0 0 0 0 0 0 0 0 0
0 0 0 0 0 0 0 0 0 0 0 0 0 0 0 0 0 0 0 0 0 0 0 0 0 0 0 0 0 0 0 0 0 0 0 0 0 0 0 0 0 0 0
0 0 0 0 0 0 0 0 0 0 0 0 0 0 0 0 0 0 0 0 0 0 0 0 0 0 0 0 0 0 0 0 0 0 0 0 0 0 0 0 0 0 0
0 0 0 0 0 0 0 0 0 0 0 0 0 0 0 0 0 0 0 0 0 0 0 0 0 0 0 0 0 0 0 0 0 0 0 0 0 0 0 0 0 0 0
0 0 0 0 0 0 0 0 0 0 0 0 0 0 0 0 0 0 0 0 0 0 0 0 0 0 0 0 0 0 0 0 0 0 0 0 0 0 0 0 0 0 0
0 0 0 0 0 0 0 0 0 0 0 0 0 0 0 0 0 0 0 0 0 0 0 0 0 0 0 0 0 0 0 0 0 0 0 0 0 0 0 0 0 0 0
0 0 0 0 0 0 0 0 0 0 0 0 0 0 0 0 0 0 0 0 0 0 0 0 0 0 0 0 0 0 0 0 0 0 0 0 0 0 0 0 0 0 0
0 0 0 0 0 0 0 0 0 0 0 0 0 0 0 0 0 0 0 0 0 0 0 0 0 0 0 0 0 0 0 0 0 0 0 0 0 0 0 0 0 0 0
0 0 0 0 0 0 0 0 0 0 0 0 0 0 0 0 0 0 0 0 0 0 0 0 0 0 0 0 0 0 0 0 0 0 0 0 0 0 0 0 0 0 0
0 0 0 0 0 0 0 0 0 0 0 0 0 0 0 0 0 0 0 0 0 0 0 0 0 0 0 0 0 0 0 0 0 0 0 0 0 0 0 0 0 0 0
Wind_Speed
3 4 3 3 3 3 3 4 4 4 4 5 4 5 6 6 6 6 5 15 17 18 19 19 20 20 21 21 20 20 19 18 16 14 13 13 13 12 11 9 9 9 8
3 3 3 3 3 4 4 4 4 3 3 3 3 2 3 4 5 5 5 8 15 18 20 21 21 21 22 23 23 21 21 19 16 15 14 14 13 13 12 11 10 9 9
4 3 3 3 3 3 4 2 2 1 1 2 3 2 2 2 3 4 4 4 6 13 18 20 19 19 21 24 24 22 21 20 17 15 15 14 14 13 12 11 11 10 9
5 4 3 3 2 3 3 2 2 1 2 2 2 2 2 2 3 4 4 4 4 5 11 18 18 17 20 23 24 23 23 20 16 15 16 15 14 13 12 12 11 11 10
5 4 3 3 3 3 2 2 2 2 2 2 2 2 2 2 3 3 4 5 5 5 5 10 15 16 20 22 23 23 23 20 17 16 17 16 15 14 13 12 11 10 9
4 4 3 3 3 3 2 2 2 2 2 2 1 1 2 2 2 2 4 4 5 5 4 5 5 8 17 19 20 21 22 20 18 18 17 16 15 15 14 12 10 9 8
3 4 3 3 4 4 4 4 3 2 2 1 0 2 2 2 2 2 3 4 4 4 3 2 3 3 5 15 17 19 19 18 17 17 16 16 16 15 14 13 11 10 8
4 4 5 4 4 3 4 4 3 2 2 2 2 1 2 3 3 2 3 3 4 3 3 3 1 1 3 4 9 16 16 15 15 17 17 16 15 15 14 13 12 10 8
5 4 5 4 3 3 4 4 4 4 2 2 3 3 2 3 3 3 3 3 4 2 3 3 3 2 2 3 5 10 13 13 17 18 16 14 13 12 13 13 13 12 10
4 4 5 4 3 3 3 4 4 3 3 3 2 3 3 3 2 2 3 3 4 3 3 3 3 3 2 2 4 9 13 13 14 14 13 12 12 12 13 14 13 13 11
2 3 3 3 3 2 2 3 3 3 3 4 3 2 1 1 1 2 2 3 3 3 3 3 2 2 2 2 3 7 9 9 8 10 11 11 12 13 14 14 14 13 12
3 4 3 2 2 1 1 3 3 4 4 3 2 2 3 2 2 2 2 1 2 2 1 1 2 2 2 3 4 9 8 7 8 9 9 10 11 13 14 15 14 14 13
2 2 2 1 1 1 1 2 3 4 4 3 3 3 2 2 2 2 2 1 1 2 1 0 1 1 0 2 3 7 7 8 8 8 9 10 12 13 14 15 15 15 14
1 1 2 3 3 3 3 3 3 4 3 4 4 4 3 3 2 2 3 2 0 1 2 2 1 3 2 2 4 7 4 9 10 10 11 11 12 13 14 14 14 14 14
0 1 1 2 3 3 2 2 2 4 3 4 4 5 3 3 2 1 2 3 3 1 2 2 2 3 3 3 5 5 5 9 12 13 13 13 13 14 14 14 14 13 14
2 2 2 3 3 4 4 2 1 2 3 3 3 5 4 3 2 2 2 2 3 3 2 2 2 3 4 4 5 5 6 9 12 13 14 14 14 14 14 14 14 14 13
3 4 3 3 3 3 3 3 2 2 0 1 2 4 4 3 3 2 2 2 2 3 2 1 1 0 3 3 3 3 4 4 5 12 13 14 14 14 14 14 15 15 13
4 4 4 5 5 4 4 4 3 3 2 1 1 2 2 2 2 2 3 3 2 2 3 1 1 2 1 2 3 3 4 5 5 10 13 15 15 15 15 16 16 16 15
4 4 4 4 4 4 3 3 3 4 5 5 4 4 3 4 3 2 2 2 2 1 2 2 0 1 1 1 1 3 4 4 5 7 11 14 16 16 16 17 17 17 17
4 4 4 4 4 4 3 3 3 4 6 6 7 6 5 5 4 3 2 2 2 2 2 2 1 0 1 1 0 1 2 3 4 5 7 7 10 13 15 17 17 17 17
4 4 5 5 5 4 4 4 3 4 5 6 6 6 5 6 7 5 3 2 3 3 2 2 1 1 1 1 1 1 2 3 3 2 2 3 3 4 6 11 15 17 17
4 5 5 5 5 5 7 6 4 4 5 6 5 5 6 7 8 8 9 9 6 4 3 2 0 0 0 1 2 2 2 3 3 3 2 3 1 3 4 4 10 15 15
3 4 3 4 4 6 9 10 9 5 5 5 5 5 5 6 8 5 6 7 8 8 6 4 3 2 2 1 1 2 2 1 2 4 3 3 3 3 3 4 10 12 11
2 1 0 2 3 4 7 8 9 6 6 6 5 5 5 6 6 5 5 5 5 5 5 3 2 2 2 1 0 1 2 2 2 3 3 1 3 3 4 4 11 12 8
1 2 2 1 0 2 3 4 6 4 4 5 5 4 4 6 10 9 6 6 6 6 7 8 5 1 1 1 1 2 3 2 1 1 3 2 2 3 3 3 6 11 10
1 2 2 2 2 2 1 3 6 3 3 2 3 4 5 4 7 8 5 5 5 5 6 7 6 5 4 4 4 3 2 2 1 2 3 2 3 3 4 3 3 4 4
Wind_Direction
192 194 198 200 210 212 217 231 227 231 235 239 238 226 223 226 236 236 235 240 238 236 236 231 226 218 208 201 206 207 199 194 189 179 176 175 168 163 163 169 164 150 138
169 171 179 195 205 202 199 209 216 216 232 241 233 215 220 230 243 245 236 244 244 240 240 244 241 228 216 207 206 206 200 193 189 182 180 179 174 169 170 174 164 153 143
168 170 173 186 188 179 175 185 202 206 215 239 258 268 262 258 263 266 261 248 253 256 254 250 247 237 222 210 205 202 198 194 189 183 183 183 179 174 175 176 170 162 152
179 177 184 192 169 144 145 164 188 225 261 261 271 292 296 289 284 279 277 269 256 254 259 255 249 238 223 212 206 202 199 197 190 186 188 185 180 176 179 182 177 169 159
181 178 193 192 160 145 158 181 196 199 232 250 251 258 276 291 300 302 302 296 282 263 246 253 253 235 220 214 209 206 203 200 196 194 189 185 181 178 183 188 183 174 165
195 184 193 181 159 156 177 200 210 205 206 218 243 256 280 311 336 335 323 312 303 293 263 239 245 235 221 213 210 211 213 213 204 197 188 183 181 181 187 189 186 181 175
210 176 165 163 164 169 187 201 199 212 227 198 108 311 311 321 326 323 328 325 323 327 320 266 223 215 216 211 205 213 220 217 206 193 180 181 185 186 188 189 188 191 189
202 181 175 178 172 170 188 203 192 193 237 193 178 221 314 322 298 313 335 334 326 336 6 14 25 201 201 184 193 207 214 208 189 175 177 186 190 189 190 192 194 198 200
201 193 191 179 174 175 198 214 205 198 228 241 203 170 192 256 290 313 325 332 332 350 15 19 28 41 110 152 172 193 187 171 168 172 182 187 190 190 195 199 201 202 206
192 190 186 175 170 182 209 223 215 201 189 228 236 212 198 193 202 300 319 326 341 1 15 19 19 28 68 116 146 157 158 159 167 178 185 190 195 196 204 210 210 210 213
111 115 150 157 157 166 202 237 243 213 194 198 206 202 195 208 174 182 280 313 337 348 7 16 3 13 53 91 112 136 150 165 179 185 184 193 200 205 212 219 222 223 224
67 64 83 104 134 147 202 241 249 229 215 208 199 189 174 174 196 181 194 258 299 310 349 20 350 345 40 77 112 128 141 164 178 180 181 192 208 215 220 226 230 233 236
76 32 23 351 275 246 259 250 242 242 224 202 188 194 183 188 186 169 156 188 252 291 295 308 278 300 348 108 127 154 170 182 185 190 199 206 211 215 220 226 231 237 242
88 359 334 309 291 276 261 245 238 242 226 204 192 184 182 213 200 170 158 150 118 327 306 262 245 239 226 179 194 195 201 204 202 205 210 213 213 215 218 221 227 234 242
64 345 323 338 349 351 319 240 232 246 228 207 194 193 193 212 206 153 146 150 150 171 276 257 231 232 220 208 210 209 214 213 208 209 213 217 220 223 226 228 229 231 235
351 349 18 18 11 5 5 17 299 269 234 210 190 199 208 204 195 164 148 151 154 160 216 277 241 232 211 219 217 212 221 221 218 217 220 224 227 230 234 238 238 236 234
13 21 24 23 8 352 356 20 16 353 284 215 202 203 210 198 187 169 158 158 159 159 169 304 300 280 182 218 228 222 226 223 226 227 229 231 233 236 241 245 248 248 244
42 37 34 33 26 26 28 29 20 25 51 59 213 188 192 169 165 160 160 166 168 163 143 156 15 27 50 229 225 231 237 232 230 235 232 232 232 234 238 245 252 256 252
52 40 41 39 37 41 46 34 37 53 60 59 63 91 89 91 76 71 142 162 168 140 130 137 68 1 336 7 222 236 239 244 244 247 241 238 236 234 236 241 248 254 256
70 53 43 29 28 35 43 47 67 76 72 65 62 66 67 75 72 66 87 123 149 124 110 123 147 301 327 323 323 263 273 253 249 248 247 240 238 235 235 240 247 255 260
69 55 47 33 28 30 25 32 52 74 81 76 63 53 49 61 63 64 75 81 124 125 120 139 167 166 278 335 331 317 310 316 300 266 269 260 247 249 238 238 245 252 256
76 57 50 48 38 31 34 39 52 61 70 75 69 51 39 36 42 62 75 74 84 109 121 117 106 157 152 347 330 331 352 11 333 340 351 310 273 265 262 242 247 249 254
89 68 46 46 38 33 52 58 63 60 59 59 58 51 41 24 28 38 74 76 70 76 93 121 103 81 78 8 340 345 349 333 302 326 347 308 329 305 304 303 301 284 273
109 119 17 18 27 20 52 76 78 65 58 51 48 52 56 35 24 46 58 54 44 41 44 55 108 147 155 167 179 257 281 292 300 336 340 325 339 319 324 344 360 5 0
219 228 224 215 106 338 12 81 105 83 66 51 38 37 56 55 44 57 62 52 33 12 8 16 14 23 161 146 138 58 30 24 350 337 342 30 341 317 320 351 10 23 27
209 226 236 226 204 225 324 80 132 117 95 64 31 18 29 64 61 60 63 59 41 3 358 4 14 22 28 39 50 67 83 67 19 322 340 7 349 354 338 331 354 7 9